Location: Milano
(45.4642°N, 9.1900°E)
Time: 07:55:38
(UTC+02:00)

ISS - Pass Details

Date: 16 May 2021
Orbit: 419 x 422 km, 51.6° (Epoch: 24 June)

Event Time Altitude Azimuth Distance (km) Brightness Sun altitude
Rises 04:28:21 0° 294° (WNW) 2,446 -0.1 -12.5°
Reaches altitude 10° 04:30:36 10° 285° (WNW) 1,574 -1.1 -12.2°
Maximum altitude 04:33:50 33° 219° (SW) 766 -3.0 -11.8°
Drops below altitude 10° 04:37:03 10° 154° (SSE) 1,569 -1.0 -11.4°
Sets 04:39:18 0° 144° (SE) 2,436 0.1 -11.1°
